Regional Weather Roundup
Issued by NWS

Home | Current Version | Previous Version | Text Only | Print | Product List | Glossary Off
Versions: 1 2 3 4 5 6 7 8 9 10 11 12 13 14 15 16 17 18 19 20 21 22 23 24 25 26 27 28 29 30 31 32 33 34 35 36 37 38 39 40 41 42 43 44 45 46 47 48 49 50

000
ASUS43 KBIS 250620
RWRND

NORTH DAKOTA REGIONAL WEATHER ROUNDUP
NATIONAL WEATHER SERVICE BISMARCK ND
100 AM CDT SAT OCT 25 2014

NOTE: "FAIR" INDICATES FEW OR NO CLOUDS BELOW 12,000 FEET WITH NO
SIGNIFICANT WEATHER AND/OR OBSTRUCTIONS TO VISIBILITY.


NDZ001>003-009>011-017-250700-
NORTHWEST NORTH DAKOTA

CITY           SKY/WX    TMP DP  RH WIND       PRES   REMARKS
WILLISTON      MOCLDY    44  26  49 W6        30.06S
6HR MIN TEMP:  39; 6HR MAX TEMP:  52;

MINOT          CLEAR     44  29  55 W7        30.03R
MINOT AFB      CLEAR     38  30  73 W8        30.02R
$$

NDZ018>021-031>035-040>046-250700-
SOUTHWEST NORTH DAKOTA

CITY           SKY/WX    TMP DP  RH WIND       PRES   REMARKS
BISMARCK       MOCLDY    48  30  49 W9        30.07R
6HR MIN TEMP:  46; 6HR MAX TEMP:  62;

DICKINSON      CLOUDY    46  32  58 W9        30.08S
GARRISON         N/A     46  30  53 W10       30.04R
6HR MIN TEMP:  43; 6HR MAX TEMP:  53;

HETTINGER ARPT CLOUDY    48  32  53 CALM      30.12R
$$

NDZ004>008-012>016-024-026-027-054-250700-
NORTHEAST NORTH DAKOTA

CITY           SKY/WX    TMP DP  RH WIND       PRES   REMARKS
GRAND FORKS    CLEAR     47  35  63 W8        29.92R
GRND FRKS AFB  CLEAR     49  35  57 NW10      29.93R
DEVILS LAKE    CLEAR     46  30  53 W15       29.96R
$$

NDZ022-023-025-028>030-036>039-047>053-250700-
SOUTHEAST NORTH DAKOTA

CITY           SKY/WX    TMP DP  RH WIND       PRES   REMARKS
FARGO          PTCLDY    46  31  55 W9        29.97R
6HR MIN TEMP:  46; 6HR MAX TEMP:  66;

JAMESTOWN      CLEAR     45  33  63 NW8       30.00R
$$




USA.gov is the U.S. government's official web portal to all federal, state and local government web resources and services.